1513371600.59,30083,6.75,71840.5,-9.39,-12.97,-13.07,0,*53
1513371601.82,30084,6.75,71838.8,-9.39,-12.89,-13.01,0,*5D
1513371603.09,30085,6.75,71834.8,-9.41,-13.01,-13.07,0,*54
1513371604.34,30086,6.75,71836.5,-9.41,-13.07,-13.19,0,*5E
1513371605.58,30087,6.75,71838.3,-9.41,-12.93,-13.11,0,*5B
1513371606.85,30088,6.69,71834.5,-9.41,-13.01,-13.11,0,*5E
1513371608.1,30089,6.75,71836.5,-9.41,-12.93,-13.19,0,*5D
1513371609.35,30090,6.75,71836.3,-9.41,-13.07,-13.19,0,*59
1513371610.62,30091,6.75,71838.8,-9.41,-13.01,-13.11,0,*56
1513371611.87,30092,6.75,71836.5,-9.41,-12.93,-13.11,0,*5F
1513371613.11,30093,6.75,71840.0,-9.43,-13.01,-13.11,0,*56
1513371614.38,30094,6.75,71838.8,-9.41,-13.01,-13.11,0,*53
1513371615.6,30095,6.75,71840.5,-9.43,-13.07,-13.19,0,*5E
1513371616.85,30096,6.75,71842.8,-9.41,-13.07,-13.19,0,*5F
1513371618.07,30097,6.75,71842.3,-9.43,-13.11,-13.19,0,*5B
1513371619.29,30098,6.75,71838.5,-9.43,-13.07,-13.19,0,*53
1513371620.57,30099,6.75,71840.0,-9.41,-13.19,-13.33,0,*57
1513371621.79,30100,6.75,71838.3,-9.43,-13.07,-13.19,0,*53
1513371623.0,30101,6.75,71840.5,-9.43,-13.07,-13.11,0,*5A
1513371624.25,30102,6.75,71840.8,-9.41,-13.11,-13.23,0,*5D
1513371625.47,30103,6.75,71838.8,-9.43,-13.11,-13.19,0,*57
1513371626.69,30104,6.75,71838.5,-9.43,-13.07,-13.19,0,*57
1513371627.91,30105,6.75,71842.0,-9.43,-13.07,-13.11,0,*5E
1513371629.12,30106,6.75,71836.8,-9.43,-13.07,-13.11,0,*5D
1513371630.34,30107,6.75,71838.3,-9.43,-13.07,-13.19,0,*54
1513371631.57,30108,6.75,71832.8,-9.43,-13.11,-13.19,0,*5C
1513371632.79,30109,6.75,71836.3,-9.43,-13.07,-13.19,0,*5A
1513371634.03,30110,6.75,71838.5,-9.43,-13.01,-13.11,0,*5C
1513371635.25,30111,6.75,71838.3,-9.43,-12.93,-12.93,0,*5C
1513371636.49,30112,6.75,71836.8,-9.45,-12.97,-12.97,0,*59
1513371637.74,30113,6.75,71838.0,-9.45,-12.97,-12.93,0,*5C
1513371638.98,30114,6.75,71836.3,-9.45,-12.97,-12.97,0,*5F
1513371640.23,30115,6.75,71840.5,-9.45,-12.97,-12.93,0,*5A
1513371641.47,30116,6.75,71842.8,-9.45,-12.97,-12.93,0,*59
1513371642.71,30117,6.75,71842.0,-9.43,-12.79,-12.89,0,*55
1513371643.96,30118,6.75,71838.5,-9.43,-12.89,-12.79,0,*5A
1513371645.17,30119,6.75,71836.8,-9.43,-12.89,-12.89,0,*54
1513371646.39,30120,6.75,71840.8,-9.43,-12.89,-12.89,0,*5E
1513371647.61,30121,6.75,71836.0,-9.43,-12.93,-12.89,0,*54
1513371648.83,30122,6.75,71836.5,-9.43,-12.93,-12.93,0,*5C
1513371650.05,30123,6.75,71838.5,-9.43,-12.93,-12.93,0,*5D
1513371651.27,30124,6.75,71832.8,-9.43,-12.93,-12.89,0,*51
1513371652.55,30125,6.75,71838.8,-9.41,-12.93,-12.79,0,*5D
1513371653.79,30126,6.75,71836.5,-9.45,-12.97,-12.93,0,*5A
1513371655.01,30127,6.75,71840.5,-9.43,-12.89,-12.89,0,*59
1513371656.25,30128,6.75,71836.5,-9.43,-12.89,-12.79,0,*59
1513371657.5,30129,6.75,71838.8,-9.43,-12.89,-12.79,0,*58
1513371658.74,30130,6.75,71838.3,-9.43,-12.89,-12.79,0,*50
1513371660.01,30131,6.75,71838.3,-9.41,-12.89,-12.79,0,*53
1513371661.26,30132,6.75,71838.3,-9.41,-12.89,-12.93,0,*54
1513371662.5,30133,6.75,71838.3,-9.41,-12.89,-12.93,0,*55
1513371663.75,30134,6.75,71838.3,-9.41,-12.93,-12.93,0,*59
1513371664.98,30135,6.75,71838.3,-9.39,-12.89,-13.01,0,*56
1513371666.2,30136,6.75,71836.8,-9.43,-12.89,-12.93,0,*52
1513371667.42,30137,6.75,71836.8,-9.39,-12.97,-12.89,0,*5A
1513371668.67,30138,6.69,71834.3,-9.41,-12.93,-12.93,0,*55
1513371669.88,30139,6.75,71838.3,-9.39,-12.89,-12.89,0,*5B
1513371671.13,30140,6.75,71840.0,-9.41,-12.89,-12.89,0,*5A
1513371672.4,30141,6.75,71838.5,-9.41,-12.79,-12.89,0,*54
1513371673.64,30142,6.75,71834.8,-9.41,-12.89,-12.89,0,*58
1513371674.94,30143,6.75,71832.5,-9.41,-12.79,-12.79,0,*59
1513371676.18,30144,6.75,71838.0,-9.41,-12.89,-12.89,0,*5E
1513371677.43,30145,6.75,71832.8,-9.41,-12.89,-12.89,0,*5F
1513371678.67,30146,6.75,71832.3,-9.41,-12.89,-12.93,0,*57
1513371679.91,30147,6.75,71836.5,-9.39,-12.83,-12.89,0,*58
1513371681.15,30148,6.75,71834.8,-9.41,-12.89,-12.93,0,*59
1513371682.37,30149,6.75,71836.8,-9.39,-12.89,-12.89,0,*5C
1513371683.58,30150,6.75,71836.0,-9.39,-12.89,-12.89,0,*54
1513371684.8,30151,6.75,71836.3,-9.39,-12.97,-12.89,0,*5A
1513371686.01,30152,6.75,71838.8,-9.39,-12.89,-12.89,0,*56
1513371687.23,30153,6.75,71838.5,-9.39,-12.97,-12.89,0,*58
1513371688.45,30154,6.75,71838.0,-9.39,-12.89,-12.89,0,*50
1513371689.66,30155,6.75,71838.3,-9.39,-12.89,-12.89,0,*51
1513371690.9,30156,6.75,71840.0,-9.41,-12.89,-12.93,0,*56
1513371692.15,30157,6.75,71838.3,-9.39,-12.75,-12.89,0,*50
1513371693.36,30158,6.75,71838.5,-9.39,-12.89,-12.89,0,*5C
1513371694.63,30159,6.75,71836.8,-9.39,-12.75,-12.83,0,*54
1513371695.86,30160,6.75,71838.0,-9.39,-12.89,-13.01,0,*56
1513371697.1,30161,6.75,71836.0,-9.39,-12.75,-12.89,0,*55
1513371698.39,30162,6.75,71834.8,-9.37,-12.83,-12.83,0,*5B
1513371699.65,30163,6.75,71836.0,-9.39,-12.83,-12.75,0,*5D
1513371700.94,30164,6.75,71840.5,-9.37,-12.83,-12.83,0,*5D
1513371702.21,30165,6.75,71838.3,-9.37,-12.89,-12.83,0,*56
1513371703.45,30166,6.75,71840.5,-9.39,-12.89,-12.83,0,*5B
1513371704.71,30167,6.75,71842.5,-9.37,-12.83,-12.89,0,*54
1513371705.98,30168,6.75,71840.5,-9.39,-12.75,-12.83,0,*56
1513371707.24,30169,6.75,71838.3,-9.39,-12.83,-12.83,0,*5E
1513371708.53,30170,6.75,71836.0,-9.37,-12.83,-12.75,0,*51
1513371709.79,30171,6.75,71836.0,-9.39,-12.83,-12.83,0,*57
1513371711.05,30172,6.75,71834.8,-9.39,-12.83,-12.75,0,*5D
1513371712.34,30173,6.75,71838.3,-9.37,-12.83,-12.83,0,*5B
1513371713.61,30174,6.75,71832.8,-9.39,-12.75,-12.75,0,*52
1513371714.91,30175,6.75,71836.0,-9.37,-12.75,-12.75,0,*5D
1513371716.21,30176,6.75,71838.0,-9.37,-12.75,-12.75,0,*5E
1513371717.51,30177,6.75,71836.5,-9.37,-12.75,-12.75,0,*5F
1513371718.81,30178,6.75,71836.8,-9.37,-12.75,-12.83,0,*59
1513371720.11,30179,6.75,71834.0,-9.37,-12.75,-12.75,0,*51
1513371721.4,30180,6.75,71838.5,-9.37,-12.83,-12.75,0,*5E
1513371722.7,30181,6.75,71832.0,-9.37,-12.75,-12.75,0,*56
1513371724.0,30182,6.75,71836.5,-9.37,-12.75,-12.75,0,*55
1513371725.27,30183,6.75,71842.8,-9.35,-12.79,-12.71,0,*5E
1513371726.54,30184,6.75,71838.0,-9.35,-12.71,-12.71,0,*51
1513371727.81,30185,6.75,71838.3,-9.35,-12.79,-12.71,0,*58
1513371729.08,30186,6.75,71838.3,-9.35,-12.71,-12.57,0,*57
1513371730.37,30187,6.75,71840.0,-9.33,-12.71,-12.65,0,*51
1513371731.66,30188,6.75,71836.3,-9.33,-12.71,-12.65,0,*5E
1513371732.94,30189,6.75,71838.5,-9.33,-12.71,-12.65,0,*5F
1513371734.23,30190,6.75,71836.8,-9.33,-12.65,-12.57,0,*53
1513371735.52,30191,6.75,71836.3,-9.33,-12.57,-12.57,0,*53
1513371736.79,30192,6.75,71838.0,-9.35,-12.65,-12.57,0,*57
1513371738.07,30193,6.75,71836.8,-9.33,-12.65,-12.65,0,*51
1513371739.36,30194,6.75,71842.3,-9.33,-12.71,-12.65,0,*53
1513371740.65,30195,6.75,71838.3,-9.33,-12.57,-12.53,0,*53
1513371741.95,30196,6.75,71836.0,-9.33,-12.65,-12.71,0,*51
1513371743.25,30197,6.75,71840.0,-9.33,-12.71,-12.71,0,*55
1513371744.54,30198,6.75,71838.5,-9.33,-12.71,-12.71,0,*5A
1513371745.84,30199,6.75,71836.3,-9.33,-12.71,-12.71,0,*5B
1513371747.14,30200,6.75,71836.5,-9.33,-12.79,-12.71,0,*50
1513371748.42,30201,6.75,71838.0,-9.33,-12.65,-12.65,0,*59
1513371749.71,30202,6.75,71834.8,-9.33,-12.57,-12.57,0,*5A
1513371751.0,30203,6.75,71834.0,-9.33,-12.65,-12.57,0,*5A
1513371752.29,30204,6.75,71832.8,-9.33,-12.65,-12.65,0,*5C
1513371753.57,30205,6.75,71834.0,-9.33,-12.79,-12.65,0,*50
1513371754.87,30206,6.75,71834.8,-9.33,-12.71,-12.71,0,*5E
1513371756.17,30207,6.75,71832.0,-9.33,-12.79,-12.71,0,*57
1513371757.44,30208,6.75,71834.0,-9.33,-12.93,-12.79,0,*54
1513371758.73,30209,6.75,71832.3,-9.33,-12.83,-12.83,0,*51
1513371760.02,30210,6.75,71834.0,-9.33,-12.79,-12.71,0,*51
1513371761.3,30211,6.75,71836.5,-9.31,-12.75,-12.75,0,*5A
1513371762.59,30212,6.75,71832.0,-9.33,-12.71,-12.71,0,*5B
1513371763.89,30213,6.75,71836.0,-9.33,-12.79,-12.71,0,*52
1513371765.19,30214,6.75,71834.0,-9.33,-12.79,-12.71,0,*55
1513371766.48,30215,6.75,71834.3,-9.33,-12.79,-12.79,0,*5C
1513371767.77,30216,6.75,71838.8,-9.33,-12.79,-12.79,0,*5F
1513371769.06,30217,6.75,71832.8,-9.33,-12.83,-12.79,0,*5B
1513371770.36,30218,6.75,71834.3,-9.33,-12.79,-12.83,0,*54
1513371771.65,30219,6.75,71838.5,-9.33,-12.71,-12.71,0,*50
1513371772.91,30220,6.75,71832.0,-9.31,-12.71,-12.65,0,*5D
1513371774.19,30221,6.75,71836.3,-9.31,-12.75,-12.75,0,*59
1513371775.45,30222,6.75,71838.8,-9.31,-12.65,-12.65,0,*5A
1513371776.71,30223,6.75,71836.8,-9.31,-12.65,-12.65,0,*5B
1513371777.97,30224,6.75,71836.3,-9.31,-12.65,-12.65,0,*5C
1513371779.24,30225,6.75,71838.3,-9.31,-12.65,-12.75,0,*5C
1513371780.51,30226,6.75,71838.5,-9.31,-12.75,-12.75,0,*5E
1513371781.75,30227,6.75,71832.0,-9.31,-12.79,-12.93,0,*5B
1513371783.0,30228,6.75,71836.0,-9.31,-12.79,-12.93,0,*54
1513371784.24,30229,6.75,71838.5,-9.31,-12.79,-12.93,0,*55
1513371785.46,30230,6.75,71838.8,-9.31,-12.89,-12.93,0,*52
1513371786.7,30231,6.75,71840.8,-9.31,-12.79,-12.93,0,*5C
1513371787.97,30232,6.75,71840.0,-9.31,-12.79,-12.79,0,*5B
1513371789.24,30233,6.75,71840.5,-9.31,-12.65,-12.75,0,*5B
1513371790.5,30234,6.75,71838.0,-9.31,-12.75,-12.65,0,*5C
1513371791.77,30235,6.75,71838.0,-9.31,-12.75,-12.65,0,*5D
1513371793.03,30236,6.75,71838.0,-9.31,-12.75,-12.65,0,*5E
1513371794.3,30237,6.75,71840.3,-9.31,-12.75,-12.65,0,*5F
1513371795.56,30238,6.75,71842.8,-9.31,-12.75,-12.65,0,*50
1513371796.83,30239,6.75,71840.0,-9.31,-12.75,-12.65,0,*51
1513371798.1,30240,6.75,71842.3,-9.31,-12.75,-12.75,0,*5E
1513371799.37,30241,6.75,71838.5,-9.31,-12.75,-12.65,0,*5E
1513371800.63,30242,6.75,71842.3,-9.31,-12.79,-12.75,0,*50
1513371801.91,30243,6.75,71840.8,-9.31,-12.75,-12.75,0,*5D
1513371803.15,30244,6.75,71840.8,-9.31,-12.93,-12.79,0,*5E
1513371804.4,30245,6.75,71842.0,-9.31,-12.93,-12.79,0,*5F
1513371805.67,30246,6.75,71838.3,-9.29,-12.89,-12.79,0,*5E
1513371806.89,30247,6.75,71842.5,-9.31,-12.93,-12.93,0,*59
1513371808.11,30248,6.75,71838.8,-9.31,-12.93,-12.97,0,*52
1513371809.32,30249,6.75,71842.0,-9.31,-13.07,-13.07,0,*57
1513371810.58,30250,6.75,71840.0,-9.33,-13.11,-13.01,0,*5C
1513371811.82,30251,6.75,71840.3,-9.33,-13.11,-13.11,0,*5C
1513371813.05,30252,6.75,71836.0,-9.33,-13.15,-13.15,0,*5F
1513371814.32,30253,6.75,71838.3,-9.33,-13.29,-13.15,0,*51
1513371815.58,30254,6.75,71838.8,-9.33,-13.29,-13.15,0,*56
1513371816.79,30255,6.75,71842.0,-9.35,-13.23,-13.15,0,*5B
1513371818.04,30256,6.75,71836.0,-9.33,-13.23,-13.23,0,*5B
1513371819.27,30257,6.75,71838.0,-9.33,-13.15,-13.11,0,*5E
1513371820.52,30258,6.75,71842.0,-9.33,-13.23,-13.23,0,*55
1513371821.76,30259,6.75,71836.5,-9.35,-13.29,-13.23,0,*58
1513371823.05,30260,6.75,71838.5,-9.33,-13.29,-13.37,0,*51
1513371824.29,30261,6.75,71838.0,-9.35,-13.23,-13.29,0,*53
1513371825.58,30262,6.75,71836.8,-9.33,-13.29,-13.37,0,*53
1513371826.84,30263,6.75,71838.8,-9.33,-13.29,-13.43,0,*51
1513371828.11,30264,6.75,71836.8,-9.33,-13.23,-13.29,0,*50
1513371829.4,30265,6.75,71836.3,-9.33,-13.37,-13.37,0,*5B
1513371830.63,30266,6.75,71838.0,-9.33,-13.43,-13.43,0,*58
1513371831.88,30267,6.75,71836.5,-9.35,-13.29,-13.51,0,*50
1513371833.11,30268,6.75,71836.8,-9.35,-13.37,-13.43,0,*53
1513371834.38,30269,6.75,71834.5,-9.35,-13.29,-13.37,0,*5E
1513371835.67,30270,6.75,71838.8,-9.33,-13.29,-13.37,0,*50
1513371836.91,30271,6.75,71838.0,-9.35,-13.29,-13.51,0,*57
1513371838.15,30272,6.75,71838.3,-9.35,-13.37,-13.51,0,*5B
1513371839.39,30273,6.75,71838.8,-9.35,-13.37,-13.55,0,*5E
1513371840.66,30274,6.75,71838.3,-9.37,-13.29,-13.47,0,*57
1513371841.92,30275,6.75,71840.5,-9.37,-13.29,-13.47,0,*56
1513371843.16,30276,6.75,71838.0,-9.37,-13.19,-13.43,0,*52
1513371844.39,30277,6.75,71840.5,-9.39,-13.29,-13.47,0,*5A
1513371845.59,30278,6.75,71842.0,-9.39,-13.15,-13.43,0,*5E
1513371846.86,30279,6.75,71838.3,-9.37,-13.07,-13.33,0,*55
1513371848.13,30280,6.75,71840.0,-9.39,-13.01,-13.33,0,*5B
1513371849.38,30281,6.75,71836.0,-9.37,-12.97,-13.19,0,*52
1513371850.62,30282,6.75,71838.3,-9.35,-13.01,-13.23,0,*54
1513371851.89,30283,6.75,71840.8,-9.37,-13.07,-13.29,0,*5B
1513371853.16,30284,6.75,71842.8,-9.37,-13.01,-13.19,0,*59
1513371854.44,30285,6.75,71840.0,-9.37,-13.01,-13.19,0,*58
1513371855.7,30286,6.75,71840.8,-9.37,-13.07,-13.29,0,*5E
1513371857.0,30287,6.75,71840.5,-9.37,-13.01,-13.33,0,*52
1513371858.26,30288,6.75,71840.5,-9.39,-13.01,-13.33,0,*53
1513371859.53,30289,6.75,71842.3,-9.37,-13.07,-13.33,0,*5A
1513371860.76,30290,6.75,71842.3,-9.39,-13.07,-13.29,0,*57
1513371862.0,30291,6.75,71844.8,-9.39,-13.07,-13.33,0,*5D
1513371863.21,30292,6.75,71842.3,-9.39,-13.07,-13.43,0,*59
1513371864.46,30293,6.75,71838.3,-9.39,-13.01,-13.19,0,*51
1513371865.67,30294,6.75,71840.5,-9.39,-13.07,-13.19,0,*50
1513371866.91,30295,6.75,71842.8,-9.39,-13.01,-13.07,0,*58
1513371868.16,30296,6.75,71838.5,-9.37,-12.97,-13.19,0,*54
1513371869.4,30297,6.75,71836.5,-9.37,-12.97,-13.07,0,*5A
1513371870.64,30298,6.75,71838.5,-9.39,-13.01,-13.15,0,*56
1513371871.88,30299,6.75,71842.5,-9.37,-12.97,-13.15,0,*57
1513371873.12,30300,6.75,71842.8,-9.37,-12.97,-13.15,0,*56
1513371874.36,30301,6.75,71838.8,-9.37,-12.89,-13.15,0,*58
1513371875.57,30302,6.75,71840.0,-9.39,-12.97,-13.07,0,*59
1513371876.78,30303,6.75,71842.0,-9.39,-12.89,-13.07,0,*57
1513371877.99,30304,6.75,71840.8,-9.39,-12.89,-13.07,0,*50
1513371879.25,30305,6.75,71836.3,-9.37,-12.89,-13.01,0,*59
1513371880.46,30306,6.75,71840.5,-9.39,-12.97,-13.15,0,*5E
1513371881.67,30307,6.75,71846.0,-9.39,-12.97,-13.15,0,*5F
1513371882.92,30308,6.75,71842.0,-9.37,-12.97,-13.19,0,*52
1513371884.13,30309,6.75,71838.3,-9.39,-12.89,-13.07,0,*5D
1513371885.37,30310,6.75,71838.8,-9.37,-12.89,-13.07,0,*5B
1513371886.58,30311,6.75,71840.5,-9.39,-12.89,-13.07,0,*54
1513371887.79,30312,6.75,71842.5,-9.39,-12.89,-13.07,0,*57
1513371889.0,30313,6.75,71838.8,-9.39,-12.97,-13.15,0,*5A
1513371890.21,30314,6.75,71840.0,-9.39,-12.89,-13.07,0,*51
1513371891.42,30315,6.75,71842.5,-9.39,-12.97,-13.15,0,*5C
1513371892.63,30316,6.75,71840.0,-9.39,-12.89,-13.07,0,*53
1513371893.84,30317,6.75,71840.8,-9.39,-12.97,-13.15,0,*5E
1513371895.05,30318,6.75,71838.5,-9.39,-12.89,-13.07,0,*5D
1513371896.26,30319,6.75,71838.5,-9.39,-12.97,-13.15,0,*50
1513371897.47,30320,6.75,71840.8,-9.39,-12.89,-13.15,0,*55
1513371898.68,30321,6.75,71840.3,-9.39,-12.97,-13.07,0,*58
1513371899.89,30322,6.75,71842.0,-9.39,-12.89,-13.07,0,*54
1513371901.1,30323,6.75,71840.5,-9.39,-12.97,-13.15,0,*59
1513371902.31,30324,6.75,71842.3,-9.39,-12.89,-13.07,0,*52
1513371903.52,30325,6.75,71838.5,-9.39,-12.89,-13.07,0,*53
1513371904.73,30326,6.75,71842.0,-9.39,-12.97,-13.07,0,*5F
1513371905.97,30327,6.75,71840.0,-9.41,-12.93,-13.11,0,*52
1513371907.22,30328,6.75,71844.0,-9.41,-12.93,-13.11,0,*5D
1513371908.46,30329,6.75,71840.5,-9.41,-12.93,-13.11,0,*5C
1513371909.71,30330,6.75,71842.8,-9.41,-13.07,-13.19,0,*50
1513371910.92,30331,6.75,71838.8,-9.39,-12.97,-13.15,0,*5A
1513371912.17,30332,6.75,71842.0,-9.39,-13.01,-13.19,0,*5B
1513371913.4,30333,6.75,71840.5,-9.39,-13.01,-13.15,0,*56
1513371914.67,30334,6.75,71840.8,-9.41,-13.01,-13.11,0,*5A
1513371915.92,30335,6.75,71838.5,-9.41,-12.93,-13.07,0,*56
1513371917.16,30336,6.75,71836.5,-9.41,-12.93,-13.07,0,*55
1513371918.38,30337,6.75,71840.0,-9.43,-12.93,-13.11,0,*51
1513371919.62,30338,6.75,71836.5,-9.41,-12.93,-13.11,0,*5C
1513371920.86,30339,6.75,71838.0,-9.41,-12.93,-13.07,0,*5A
1513371922.13,30340,6.75,71838.8,-9.41,-12.79,-13.07,0,*50
1513371923.4,30341,6.75,71838.0,-9.41,-12.79,-12.93,0,*5D
1513371924.64,30342,6.75,71840.3,-9.41,-12.89,-12.93,0,*51
1513371925.91,30343,6.75,71840.3,-9.41,-12.79,-13.07,0,*53
1513371927.18,30344,6.75,71840.5,-9.39,-12.75,-12.83,0,*5A
1513371928.45,30345,6.75,71842.5,-9.41,-12.79,-12.89,0,*52
1513371929.69,30346,6.75,71840.8,-9.41,-12.89,-12.93,0,*55
1513371930.93,30347,6.75,71840.3,-9.39,-12.75,-12.89,0,*53
1513371932.2,30348,6.75,71840.3,-9.39,-12.75,-12.75,0,*5F
1513371933.47,30349,6.75,71838.3,-9.39,-12.75,-12.83,0,*57
1513371934.74,30350,6.75,71842.5,-9.41,-12.89,-12.79,0,*56
1513371936.04,30351,6.75,71836.0,-9.41,-12.79,-12.79,0,*58
1513371937.34,30352,6.75,71836.5,-9.41,-12.75,-12.79,0,*57
1513371938.61,30353,6.75,71838.3,-9.39,-12.71,-12.71,0,*55
1513371939.88,30354,6.75,71838.8,-9.39,-12.75,-12.71,0,*56
1513371941.14,30355,6.75,71836.0,-9.39,-12.75,-12.61,0,*56
1513371942.41,30356,6.75,71836.3,-9.39,-12.71,-12.71,0,*50
1513371943.69,30357,6.75,71838.8,-9.39,-12.71,-12.71,0,*51
1513371944.99,30358,6.75,71836.5,-9.37,-12.75,-12.71,0,*54
1513371946.26,30359,6.75,71836.0,-9.39,-12.75,-12.75,0,*5F
1513371947.53,30360,6.75,71838.0,-9.39,-12.75,-12.75,0,*55
1513371948.82,30361,6.75,71838.8,-9.37,-12.83,-12.75,0,*53
1513371950.11,30362,6.75,71838.5,-9.37,-12.83,-12.75,0,*50
1513371951.35,30363,6.75,71836.3,-9.39,-12.89,-12.83,0,*5C
1513371952.59,30364,6.75,71842.3,-9.39,-12.89,-12.83,0,*5B
1513371953.82,30365,6.75,71838.8,-9.39,-12.89,-12.83,0,*5A
1513371955.09,30366,6.75,71842.3,-9.37,-12.89,-12.83,0,*57
1513371956.33,30367,6.75,71836.3,-9.39,-12.89,-12.75,0,*51
1513371957.57,30368,6.75,71838.8,-9.39,-12.89,-12.83,0,*57
1513371958.81,30369,6.75,71838.5,-9.37,-12.97,-12.89,0,*5D
1513371960.05,30370,6.75,71838.0,-9.39,-12.89,-12.83,0,*5E
1513371961.29,30371,6.75,71838.0,-9.39,-12.89,-12.83,0,*5F
1513371962.53,30372,6.75,71836.0,-9.39,-12.97,-12.83,0,*53
1513371963.8,30373,6.75,71838.3,-9.37,-12.89,-12.83,0,*53
1513371965.04,30374,6.75,71836.0,-9.37,-12.97,-12.89,0,*51
1513371966.29,30375,6.75,71836.0,-9.37,-12.97,-12.89,0,*50
1513371967.56,30376,6.75,71836.0,-9.37,-12.97,-12.83,0,*59
1513371968.77,30377,6.75,71838.0,-9.39,-12.89,-12.89,0,*53
1513371969.99,30378,6.75,71834.8,-9.39,-12.97,-12.89,0,*53
1513371971.26,30379,6.75,71836.8,-9.37,-13.01,-12.89,0,*52
1513371972.5,30380,6.75,71836.5,-9.37,-12.97,-12.89,0,*5A
1513371973.72,30381,6.75,71836.0,-9.39,-12.89,-12.89,0,*5A
1513371974.96,30382,6.75,71836.0,-9.39,-12.97,-12.83,0,*5C
1513371976.2,30383,6.75,71838.0,-9.37,-12.89,-12.89,0,*56
1513371977.47,30384,6.75,71838.8,-9.37,-12.89,-12.83,0,*5B
1513371978.71,30385,6.75,71838.8,-9.39,-12.97,-12.83,0,*5B
1513371979.98,30386,6.75,71834.8,-9.37,-12.97,-12.83,0,*56
1513371981.25,30387,6.75,71838.0,-9.37,-12.97,-12.75,0,*5E
1513371982.52,30388,6.75,71834.5,-9.37,-12.97,-12.83,0,*58
1513371983.81,30389,6.75,71840.3,-9.37,-13.01,-12.83,0,*57
1513371985.06,30390,6.75,71836.5,-9.37,-12.97,-12.89,0,*5B
1513371986.33,30391,6.75,71838.8,-9.37,-12.97,-12.83,0,*50
1513371987.6,30392,6.75,71836.8,-9.37,-12.97,-12.83,0,*53
1513371988.87,30393,6.75,71834.8,-9.37,-13.01,-12.89,0,*56
1513371990.14,30394,6.75,71836.8,-9.37,-12.97,-12.75,0,*5C
1513371991.42,30395,6.75,71838.3,-9.37,-12.97,-12.75,0,*5D
1513371992.69,30396,6.75,71836.0,-9.37,-12.97,-12.75,0,*5E
1513371993.96,30397,6.75,71836.5,-9.37,-12.89,-12.75,0,*50
1513371995.21,30398,6.75,71834.8,-9.35,-12.93,-12.71,0,*52
1513371996.48,30399,6.75,71838.0,-9.37,-12.89,-12.75,0,*5E
1513371997.75,30400,6.75,71836.3,-9.37,-12.97,-12.75,0,*56
1513371999.02,30401,6.75,71836.3,-9.37,-12.97,-12.83,0,*5E
1513372000.3,30402,6.75,71836.5,-9.37,-12.97,-12.75,0,*54
1513372001.57,30403,6.75,71838.5,-9.37,-12.97,-12.75,0,*55
1513372002.84,30404,6.75,71836.8,-9.37,-12.97,-12.75,0,*52
1513372004.09,30405,6.75,71834.3,-9.35,-12.93,-12.71,0,*51
1513372005.34,30406,6.75,71838.5,-9.35,-12.93,-12.71,0,*52
1513372006.59,30407,6.75,71836.3,-9.35,-12.93,-12.71,0,*53
1513372007.86,30408,6.75,71838.3,-9.35,-12.83,-12.79,0,*55
1513372009.1,30409,6.75,71834.3,-9.35,-12.97,-12.79,0,*51
1513372010.35,30410,6.75,71834.5,-9.35,-12.97,-12.71,0,*51
1513372011.6,30411,6.75,71834.3,-9.35,-12.97,-12.71,0,*50
1513372012.9,30412,6.75,71836.3,-9.33,-13.01,-12.79,0,*53
1513372014.17,30413,6.75,71836.3,-9.35,-13.01,-12.79,0,*54
1513372015.41,30414,6.75,71834.3,-9.35,-12.97,-12.79,0,*5D
1513372016.68,30415,6.75,71838.0,-9.33,-12.97,-12.83,0,*5F
1513372017.95,30416,6.75,71838.0,-9.33,-12.97,-12.83,0,*5C
1513372019.24,30417,6.75,71838.0,-9.33,-13.01,-12.83,0,*53
1513372020.51,30418,6.81,71840.8,-9.33,-12.97,-12.83,0,*52
1513372021.78,30419,6.75,71838.3,-9.35,-13.01,-12.83,0,*5B
1513372022.99,30420,6.75,71836.5,-9.35,-12.97,-12.97,0,*5A
1513372024.24,30421,6.75,71838.3,-9.35,-12.97,-12.83,0,*5E
1513372025.51,30422,6.75,71836.5,-9.35,-13.01,-12.83,0,*53
1513372026.75,30423,6.75,71838.0,-9.35,-13.01,-12.97,0,*57
1513372028.04,30424,6.75,71832.0,-9.33,-13.01,-12.83,0,*53
1513372029.33,30425,6.75,71838.5,-9.33,-13.01,-12.83,0,*52
1513372030.6,30426,6.75,71834.8,-9.33,-12.97,-12.83,0,*5F
1513372031.87,30427,6.75,71834.5,-9.33,-13.01,-12.97,0,*55
1513372033.11,30428,6.75,71838.5,-9.33,-13.11,-12.97,0,*5B
1513372034.38,30429,6.75,71840.0,-9.33,-13.01,-12.97,0,*5B
1513372035.65,30430,6.75,71834.5,-9.33,-13.01,-12.97,0,*53
1513372036.89,30431,6.75,71832.0,-9.33,-13.11,-12.97,0,*53
1513372038.1,30432,6.75,71834.0,-9.35,-13.11,-12.97,0,*56
1513372039.34,30433,6.75,71832.0,-9.33,-13.15,-12.97,0,*55
1513372040.55,30434,6.75,71836.3,-9.35,-13.15,-13.11,0,*5B
1513372041.79,30435,6.75,71838.8,-9.33,-13.15,-13.11,0,*5C
1513372043.05,30436,6.75,71836.8,-9.33,-13.15,-13.01,0,*5E
1513372044.28,30437,6.75,71834.5,-9.33,-13.15,-13.11,0,*5E
1513372045.54,30438,6.75,71838.3,-9.33,-13.11,-13.01,0,*54
1513372046.78,30439,6.75,71834.0,-9.33,-13.15,-13.11,0,*50
1513372047.99,30440,6.75,71834.3,-9.31,-13.11,-13.07,0,*5F
1513372049.2,30441,6.75,71836.5,-9.31,-13.07,-13.07,0,*59
1513372050.41,30442,6.75,71838.5,-9.31,-13.11,-13.07,0,*5D
1513372051.63,30443,6.75,71832.3,-9.31,-13.11,-13.07,0,*5C
1513372052.88,30444,6.75,71834.5,-9.33,-13.15,-13.01,0,*5B
1513372054.12,30445,6.75,71834.3,-9.33,-13.23,-13.15,0,*5A
1513372055.36,30446,6.75,71836.3,-9.33,-13.23,-13.15,0,*59
1513372056.58,30447,6.75,71838.8,-9.35,-13.23,-13.15,0,*5E
1513372057.82,30448,6.75,71836.5,-9.33,-13.23,-13.15,0,*57
1513372059.06,30449,6.75,71836.5,-9.33,-13.23,-13.15,0,*56
1513372060.32,30450,6.75,71832.3,-9.33,-13.29,-13.15,0,*54
1513372061.59,30451,6.75,71832.0,-9.33,-13.29,-13.23,0,*50
1513372062.85,30452,6.75,71838.0,-9.33,-13.29,-13.23,0,*53
1513372064.12,30453,6.75,71836.0,-9.35,-13.29,-13.29,0,*5E
1513372065.39,30454,6.75,71836.3,-9.33,-13.29,-13.23,0,*55
1513372066.65,30455,6.75,71838.0,-9.33,-13.29,-13.23,0,*54
1513372067.94,30456,6.75,71836.0,-9.33,-13.37,-13.29,0,*52
1513372069.19,30457,6.75,71838.0,-9.33,-13.23,-13.23,0,*5C
1513372070.43,30458,6.81,71838.0,-9.33,-13.23,-13.23,0,*53
1513372071.7,30459,6.75,71832.5,-9.33,-13.29,-13.23,0,*58
1513372072.94,30460,6.75,71838.3,-9.33,-13.23,-13.23,0,*58
1513372074.16,30461,6.75,71838.3,-9.31,-13.23,-13.11,0,*5A
1513372075.43,30462,6.75,71834.0,-9.33,-13.23,-13.29,0,*50
1513372076.71,30463,6.75,71834.0,-9.33,-13.37,-13.29,0,*54
1513372077.93,30464,6.75,71834.0,-9.31,-13.23,-13.23,0,*5E
1513372079.17,30465,6.75,71838.5,-9.31,-13.33,-13.23,0,*5E
1513372080.46,30466,6.75,71836.8,-9.33,-13.37,-13.29,0,*51
1513372081.73,30467,6.75,71836.8,-9.33,-13.23,-13.37,0,*5A
1513372082.97,30468,6.75,71836.3,-9.31,-13.19,-13.33,0,*5A
1513372084.26,30469,6.75,71838.3,-9.33,-13.29,-13.37,0,*5E
1513372085.55,30470,6.75,71838.3,-9.33,-13.37,-13.37,0,*59
1513372086.8,30471,6.75,71834.3,-9.31,-13.23,-13.33,0,*5B
1513372088.09,30472,6.75,71840.3,-9.33,-13.29,-13.29,0,*5B
1513372089.38,30473,6.75,71836.8,-9.33,-13.29,-13.37,0,*55
1513372090.67,30474,6.75,71838.5,-9.33,-13.29,-13.37,0,*52
1513372091.91,30475,6.75,71836.0,-9.31,-13.23,-13.33,0,*5F
1513372093.18,30476,6.75,71840.8,-9.33,-13.23,-13.29,0,*55
1513372094.42,30477,6.75,71842.3,-9.31,-13.23,-13.33,0,*5D
1513372095.66,30478,6.75,71838.5,-9.31,-13.23,-13.37,0,*56
1513372096.93,30479,6.75,71838.3,-9.33,-13.29,-13.51,0,*5F
1513372098.14,30480,6.81,71840.3,-9.31,-13.19,-13.47,0,*5F
1513372099.43,30481,6.75,71840.8,-9.33,-13.29,-13.37,0,*58
1513372100.7,30482,6.81,71842.3,-9.33,-13.29,-13.51,0,*5B
1513372101.96,30483,6.75,71836.8,-9.33,-13.29,-13.51,0,*5A
1513372103.2,30484,6.81,71840.5,-9.33,-13.23,-13.43,0,*54
1513372104.44,30485,6.75,71840.3,-9.35,-13.29,-13.51,0,*5A
1513372105.71,30486,6.75,71842.5,-9.33,-13.29,-13.43,0,*5C
1513372106.97,30487,6.75,71838.5,-9.33,-13.11,-13.37,0,*55
1513372108.18,30488,6.81,71842.5,-9.35,-13.11,-13.43,0,*5F
1513372109.44,30489,6.75,71840.5,-9.33,-13.15,-13.29,0,*50